{"data":{"norad_id":58019,"intl_designator":"2023-155D","name":"ANSER FOLLOWER 1","alt_names":[],"object_type":"PAYLOAD","status":"ACTIVE","operator":null,"country":"SPN","launch_date":"2023-10-09","launch_site_code":"FRGUI","launch_vehicle":null,"mission":null,"orbit_class":"UNKNOWN","rcs_meters":null,"size_class":null,"mass_kg":null,"dimensions":null,"purposes":[],"wikipedia_slug":null,"has_3d_model":false,"image_url":null,"decayed_at":null,"tle_current":{"epoch":"2026-05-25T04:41:42.679968Z","epoch_age_seconds":61314,"freshness":"FRESH","line1":"1 58019U 23155D   26145.19563287  .00051232  00000+0  11036-2 0  9993","line2":"2 58019  97.5549 234.0034 0002440 140.7849 219.3576 15.44439288145408","mean_motion":15.44439288,"eccentricity":0.000244,"inclination_deg":97.5549,"raan_deg":234.0034,"arg_perigee_deg":140.7849,"mean_anomaly_deg":219.3576,"bstar":0.0011036,"rev_number":14540,"period_min":93.237721365192,"perigee_km":431.36418801238,"apogee_km":434.68803561095,"semimajor_km":6811.1631118117,"source":"CELESTRAK","updated_at":"2026-05-25T13:38:00.425980Z"}}}